Regional Weather Roundup
Issued by NWS Northern Indiana

Home | Current Version | Previous Version | Text Only | Print | Product List | Glossary Off
Versions: 1 2 3 4 5 6 7 8 9 10 11 12 13 14 15 16 17 18 19 20 21 22 23 24 25 26 27 28 29 30 31 32 33 34 35 36 37 38 39 40 41 42 43 44 45 46 47 48 49 50

000
ASUS43 KIWX 241611
RWRIWX

KIWX WEATHER ROUNDUP
NATIONAL WEATHER SERVICE NORTHERN INDIANA
1200 PM EDT MON JUL 24 2017

NOTE: "FAIR" INDICATES FEW OR NO CLOUDS BELOW 12,000 FEET WITH NO
SIGNIFICANT WEATHER AND/OR OBSTRUCTIONS TO VISIBILITY.

* THESE STATIONS ARE NOT UNDER NWS QUALITY CONTROL. THEY ALSO MAY NOT
  REPORT WEATHER SUCH AS PRECIPITATION OR FOG.

INZ001>027-241700-
NORTHERN INDIANA

CITY           SKY/WX    TMP DP  RH WIND       PRES   REMARKS
GARY*          PTSUNNY   75  61  60 N12G23    30.02S
VALPARAISO     CLOUDY    72  62  71 NE8       30.02R
MICHIGAN CITY* CLOUDY    68  59  73 N9        30.02R
LAPORTE*       CLOUDY    68  60  75 N13       30.01S
KNOX*          CLOUDY    70  61  73 N12       30.00R
SOUTH BEND     CLOUDY    69  59  70 N9        30.01R
ELKHART*       CLOUDY    68  59  73 N12       30.00R
GOSHEN         CLOUDY    70  58  65 N13       29.99S
MONTICELLO*    PTSUNNY   73  64  72 N8        29.98S
LOGANSPORT*    CLOUDY    72  63  73 N5        29.99S
ROCHESTER*     PTSUNNY   75  63  64 N6        30.00R
WARSAW*        CLOUDY    70  59  68 N7        30.00R
AUBURN*        CLOUDY    68  59  73 N10       30.00R
FORT WAYNE     PTSUNNY   72  62  71 N13       29.98R
HUNTINGTON*    CLOUDY    70  62  76 N7        29.99R
PERU/GRISSOM   PTSUNNY   73  64  73 N8        29.98R
MARION*        CLOUDY    73  64  73 N7        29.99R

$$
INZ028>050-241700-
CENTRAL INDIANA

CITY           SKY/WX    TMP DP  RH WIND       PRES   REMARKS
LAFAYETTE      PTSUNNY   74  66  76 N8        29.98S
KOKOMO*        CLOUDY    75  64  68 N10G16    30.00R
MUNCIE*        PTSUNNY   77  66  68 N8        29.97S
INDIANAPOLIS   MOSUNNY   78  67  68 NW9       29.96S

$$
MIZ043>046-050>051-056>058-064>065-071>073-077>080-241700-
SOUTHWEST LOWER MICHIGAN

CITY           SKY/WX    TMP DP  RH WIND       PRES   REMARKS
BATTLE CREEK   CLOUDY    68  55  63 NE13      30.01R
BENTON HARBOR  PTSUNNY   70  57  63 VRB6      30.00S
COLDWATER*     CLOUDY    67  59  76 N13G18    30.00R
HILLSDALE*     CLOUDY    64  54  68 N10G16    30.00R
HOLLAND        PTSUNNY   72  55  55 N8        30.02R
GRAND RAPIDS   PTSUNNY   70  56  61 NE12G18   30.01R
KALAMAZOO      PTSUNNY   70  53  54 NE9       30.01R
STURGIS*       CLOUDY    66  59  77 N12       29.99S
THREE RIVERS*  CLOUDY    68  58  70 N3        30.01R

$$
OHZ001>008-015>018-024>025-241700-
NORTHWEST OHIO

CITY           SKY/WX    TMP DP  RH WIND       PRES   REMARKS
WAUSEON*       CLOUDY    70  57  64 N13       29.98R
DEFIANCE       CLOUDY   N/A N/A N/A N10       29.98R
FINDLAY        PTSUNNY   73  59  61 N13G23    29.96R
TOLEDO EXPRESS CLOUDY    67  58  72 N10       29.97R
TOLEDO METCALF CLOUDY    70  59  68 NW13      29.97R
LIMA           PTSUNNY   72  64  76 N8        29.97R

$$
AND FOR LAKE MICHIGAN COASTAL AND OPEN LAKE BUOY OBSERVATIONS

STATION/POSITION TEMP    WIND        PRES    VSBY  WAVE
                 AIR SEA DIR/SP/G                  HT/PER
                 (F)     (DEG/KT/KT) (MB)    (MI)  (FT/S)
CALUMET HARBOR    70     360/ 12/ 14 1016.1R
MICHIGAN CITY     68      10/ 18/ 20   N/A
BURNS HARBOR      69      20/ 16/ 18 1016.6R
SAINT JOSEPH      68      20/ 12/ 15 1016.9
SOUTH LAKE BUOY   66 70   20/ 14/ 17 1016.7R         4/ 7
4 MI NW BRIDGMAN  68 73   40/ 14/ 19 1016.3          5/ 5
MICHIGAN CITY     69 74   30/ 16/ 19   N/A           6/ 7

$$
&&



USA.gov is the U.S. government's official web portal to all federal, state and local government web resources and services.